Flag for Germany Weather past 2 weeks in Tönisvorst, North Rhine-Westphalia, Germany

Now
50 °F

Passing clouds.


Feels Like: 44 °F
Forecast: 48 / 52 °F
Wind: 18 mph from Southwest

Location: Monchengladbach Airport

Current Time: Dec 22, 2014 at 2:58:15 PM

Latest Report: Dec 22, 2014 at 2:20 PM


Visibility: N/A

Pressure: 30.07 "Hg

Humidity: 88%

Dew point: 46 °F

Location of TönisvorstLocation

Historic Weather in Tönisvorst — Graph

°F

Tönisvorst temperature yesterday

Maximum temperature yesterday: 46 °F (at 2:50 PM)
Minimum temperature yesterday: 41 °F (at 7:50 AM)
Average temperature yesterday: 44 °F

Past Weeks' High & Low Weather Summary

 TemperatureHumidityPressure
High55 °F (Dec 18, 12:20 PM)100% (Dec 8, 5:50 PM)30.39 "Hg (Dec 8, 5:50 PM)
Low30 °F (Dec 14, 7:50 AM)66% (Dec 7, 1:50 PM)29.42 "Hg (Dec 12, 12:50 PM)
Average44 °F87%29.95 "Hg
* Reported Dec 7 1:20 PM — Dec 22 1:20 PM, Tönisvorst, Weather by CustomWeather, © 2014

Note: Actual official high and low records may vary slightly from our data, if they occured in-between our weather recording intervals... More about our weather records

Advertising

Tönisvorst weather history for previous 24 hours

 ConditionsComfort  
Time TempWeatherWind HumidityBarometerVisibility
1:20 PM
Dec 22
50 °FPassing clouds.18 mph82%30.07 "HgN/A
12:50 PM50 °FPassing clouds.20 mph82%30.07 "HgN/A
12:20 PM48 °FPassing clouds.17 mph87%30.09 "HgN/A
11:50 AM48 °FPassing clouds.17 mph87%30.09 "HgN/A
11:20 AM48 °FPassing clouds.18 mph87%30.09 "HgN/A
10:50 AM48 °FPassing clouds.18 mph87%30.12 "HgN/A
10:20 AM48 °FPassing clouds.20 mph82%30.12 "HgN/A
9:50 AM48 °FPassing clouds.18 mph82%30.12 "HgN/A
9:20 AM48 °FPassing clouds.21 mph82%30.12 "HgN/A
8:50 AM48 °FPassing clouds.17 mph82%30.12 "HgN/A
8:20 AM48 °FPassing clouds.21 mph87%30.12 "HgN/A
7:50 AM48 °FPassing clouds.20 mph87%30.12 "HgN/A
8:20 PM
Dec 21
46 °FPassing clouds.13 mph93%30.24 "Hg5 mi
7:50 PM46 °FRain. Passing clouds.13 mph93%30.24 "Hg4 mi
7:20 PM46 °FLight rain. Passing clouds.13 mph93%30.27 "Hg4 mi
6:50 PM46 °FLight rain. Passing clouds.12 mph93%30.27 "Hg3 mi
6:20 PM45 °FPassing clouds.13 mph100%30.27 "Hg4 mi
5:50 PM45 °FLight rain. Passing clouds.10 mph93%30.27 "Hg4 mi
5:20 PM45 °FLight rain. Passing clouds.12 mph93%30.27 "Hg5 mi
4:50 PM46 °FLight rain. Passing clouds.12 mph87%30.27 "Hg4 mi
4:20 PM46 °FLight rain. Passing clouds.18 mph87%30.27 "Hg4 mi
3:50 PM45 °FLight rain. Passing clouds.12 mph93%30.27 "Hg4 mi
3:20 PM46 °FLight rain. Passing clouds.16 mph87%30.30 "Hg4 mi
2:50 PM46 °FPassing clouds.10 mph82%30.30 "Hg4 mi
2:20 PM45 °FPassing clouds.10 mph87%30.33 "HgN/A
Weather by CustomWeather, © 2014

See weather overviewHow to use our weather pages